#timestamp,LO_Frequency,Hit 
1502953215.3,286047000.1,N
1502953235.2,286047002.4,N
1502953255.9,286047002.0,N
1502953275.7,286047002.1,N
1502953295.6,286047002.5,N
1502953315.4,286047003.8,N
1502953335.2,286047003.5,N
1502953355.0,286047001.5,N
1502953356.0,286047001.5,N
1502953375.8,286047002.0,N
1502953395.6,286047002.7,N
1502953415.4,286046999.8,N
1502953435.3,286047002.1,N
1502953455.1,286047002.2,N
1502953475.8,286047002.2,N
1502953495.7,286047001.4,N
1502953515.5,286046999.9,N
1502953535.3,286047002.8,N
1502953555.2,286046999.7,N
1502953575.9,286047002.3,N
1502953595.7,286046999.8,N
1502953615.6,286047000.2,N
1502953635.4,286047002.8,N
1502953655.2,286047002.2,N
1502953675.1,286047000.9,N
1502953676.0,286047000.9,N
1502953695.8,286047002.7,N
1502953715.6,286047000.1,N
1502953735.4,286047003.3,N
1502953755.3,286047001.6,N
1502953775.1,286047004.1,P
1502953795.9,286047000.8,N
1502953815.7,286047001.1,N
1502953835.5,286046998.6,N
1502953855.3,286046999.4,N
1502953875.2,286046998.2,N
1502953895.0,286046997.4,N
1502953895.9,286046997.4,N
1502953915.7,286046997.9,N
1502953935.6,286046998.7,N
1502953955.4,286047000.8,N
1502953975.2,286046999.6,N
1502953995.1,286046998.4,N
1502953996.0,286046998.4,N
1502954015.8,286046995.1,N
1502954035.6,286046997.6,N
1502954055.5,286047000.8,N
1502954075.3,286046998.6,N
1502954095.1,286047002.6,N
1502954115.9,286047004.4,N
1502954135.7,286047003.7,N
1502954155.5,286047004.3,N
1502954175.3,286047003.0,N
1502954195.2,286047002.0,N
1502954215.0,286047001.9,N
1502954215.9,286047001.9,N
1502954235.7,286047001.8,N
1502954255.6,286047002.9,N
1502954275.4,286047003.2,N
1502954295.2,286047001.3,N
1502954315.1,286047005.4,N
1502954316.0,286047005.4,N
1502954335.8,286047003.3,N
1502954355.6,286047003.1,N
1502954375.5,286047005.3,N
1502954395.3,286047004.1,N
1502954415.1,286047005.7,N
1502954435.9,286047005.5,N
1502954455.7,286047001.5,N
1502954475.5,286047001.3,N
1502954495.3,286047001.4,N
1502954515.2,286047003.2,N
1502954535.0,286047005.0,N
1502954535.9,286047005.0,N
1502954555.8,286047007.6,P
1502954575.6,286047003.2,N
1502954595.4,286047005.1,N
1502954615.3,286047007.4,P
1502954635.1,286047004.4,P
1502954636.0,286047004.4,P
1502954655.8,286047003.2,N
1502954675.7,286047003.2,N
1502954695.5,286047001.9,N
1502954715.3,286046999.9,N
1502954735.2,286047000.4,N
1502954755.9,286047001.0,N
1502954775.7,286047000.0,N
1502954795.5,286046999.9,N
1502954815.4,286047000.3,N
1502954835.2,286047000.5,N
1502954855.0,286047002.3,N
1502954855.9,286047002.3,N
1502954875.8,286047001.9,N
1502954895.6,286046998.9,N
1502954915.4,286046998.2,N
1502954935.3,286047000.8,N
1502954955.1,286047000.4,N
1502954956.0,286047000.4,N
1502954975.8,286047001.2,N
1502954995.7,286046998.4,N
1502955015.5,286046997.2,N
1502955035.3,286046999.1,N
1502955055.2,286046999.5,N
1502955075.9,286046996.5,N
1502955095.7,286046999.0,N
1502955115.5,286047001.1,N
1502955135.4,286047001.0,N
1502955155.2,286047000.2,N
1502955175.0,286047000.4,N
1502955175.9,286047000.4,N
1502955195.8,286046999.9,N
1502955215.6,286046999.9,N
1502955235.4,286047000.4,N
1502955255.3,286047000.9,N
1502955275.1,286046999.2,N
1502955295.8,286046998.8,N
1502955315.7,286047000.5,N
1502955335.5,286046999.0,N
1502955355.3,286046996.8,N
1502955375.2,286046996.8,N
1502955395.9,286046995.5,N
1502955415.7,286046995.4,N
1502955435.6,286046995.8,N
1502955455.4,286046995.4,N
1502955475.2,286046995.7,N
1502955495.0,286046995.2,N
1502955496.0,286046995.2,N
1502955515.8,286046998.0,N
1502955535.6,286046994.1,N
1502955555.5,286046993.5,P
1502955575.3,286046997.2,N
1502955595.1,286046996.2,N
1502955615.9,286046994.0,P
1502955635.7,286046995.1,P
1502955655.5,286046995.2,P
1502955675.4,286046993.5,P
1502955695.2,286046996.6,P
1502955715.0,286046997.5,N
1502955715.9,286046997.5,N
1502955735.8,286046996.8,N
1502955755.6,286046997.0,N
1502955775.4,286046996.9,N
1502955795.3,286046996.8,N
1502955815.1,286046999.1,N
1502955816.0,286046999.1,N
1502955835.8,286046997.0,N
1502955855.6,286046997.2,N
1502955875.5,286046997.7,N
1502955895.3,286046996.8,N
1502955915.1,286046997.9,N
1502955935.9,286046995.5,P
1502955955.7,286046999.5,N
1502955975.5,286046999.5,N
1502955995.4,286046997.9,N
1502956015.2,286046997.4,N
1502956035.0,286046997.9,N
1502956035.9,286046997.9,N
1502956055.8,286046999.5,N
1502956075.6,286046996.7,N
1502956095.4,286046995.2,P
1502956115.3,286046995.7,P
1502956135.1,286046993.5,P
1502956155.8,286046995.8,N
1502956175.7,286046995.7,P
1502956195.5,286046999.7,P
1502956215.3,286047001.9,N
1502956235.2,286047000.5,N
1502956255.0,286047002.8,N
1502956255.9,286047002.8,N
1502956275.7,286046998.7,N
1502956295.6,286046999.1,N
1502956315.4,286046999.3,N
1502956335.2,286046998.9,N
1502956355.1,286046995.4,N
1502956356.0,286046995.4,N
1502956375.8,286046999.1,N
1502956395.6,286046999.6,N
1502956415.5,286046999.2,N
1502956435.3,286046997.6,N
1502956455.1,286046998.3,N
1502956475.9,286046999.2,N
1502956495.7,286046999.3,N
1502956515.5,286046999.1,N
1502956535.4,286046996.7,N
1502956555.2,286046999.4,N
1502956575.0,286046998.4,N
1502956575.9,286046998.4,N
1502956595.7,286046998.7,N
1502956615.6,286046995.0,N
1502956635.4,286046991.8,P
1502956655.3,286046995.6,N
1502956675.1,286046995.6,N
1502956676.0,286046995.6,N
1502956695.8,286046999.3,N
1502956715.6,286046997.5,N
1502956735.5,286046997.5,N
1502956755.3,286046997.2,N
1502956775.1,286046997.4,N
1502956795.9,286046996.8,N
